Cosmos 1842 - Orbit

View from above orbital plane
View from above orbital plane
View from above satellite
View from above satellite

Ground track
Ground track

The orbit data is extracted from the following two-line orbital elements,

1 17911U 87038A   13143.82252089  .00002714  00000-0  19490-3 0  2042
2 17911 082.4904 202.5752 0011797 263.6243 096.3640 15.03886690417907
Epoch (UTC): 23 May 2013 19:44:25
Eccentricity: 0.0011797
inclination: 82.4904°
perigee height: 547 km
apogee height: 563 km
right ascension of ascending node: 202.5752°
argument of perigee: 263.6243°
revolutions per day: 15.03886690
mean anomaly at epoch: 96.3640°
orbit number at epoch: 41790

The dashed part of the orbit path shows where the satellite is in the earth's shadow,  

Developed and maintained by Chris Peat, Heavens-Above GmbH. Please read the updated FAQ before sending e-mail. Imprint. DLR